Home > Time Zones > World Clock > Weather > China > Sian > Past weeks

Flag for China Weather past 2 weeks in Sian, Shaanxi, China

Now
66 °F

Fog.


Feels Like: 66 °F
Forecast: 58 / 73 °F
Wind: 1 mph from North

Location: Xian/Xianyang

Current Time: Sep 23, 2014 at 2:59:26 AM

Latest Report: Sep 23, 2014 at 2:00 AM


Visibility: 2 mi

Pressure: 30.01 "Hg

Humidity: 88%

Dew point: 63 °F

Location of SianLocation

Historic Weather in Sian — Graph

°F

Sian temperature yesterday

Maximum temperature yesterday: 75 °F (at 2:00 PM)
Minimum temperature yesterday: 66 °F (at 10:00 PM)
Average temperature yesterday: 70 °F

Past Weeks' High & Low Weather Summary

 TemperatureHumidityPressure
High82 °F (Sep 21, 2:00 PM)100% (Sep 8, 2:00 AM)30.18 "Hg (Sep 8, 2:00 AM)
Low54 °F (Sep 20, 5:00 AM)54% (Sep 20, 3:00 PM)29.74 "Hg (Sep 11, 1:00 PM)
Average66 °F89%29.96 "Hg
* Reported Sep 8 1:00 AM — Sep 23 1:00 AM, Sian, Weather by CustomWeather, © 2014

Note: Actual official high and low records may vary slightly from our data, if they occured in-between our weather recording intervals... More about our weather records

Advertising

Sian weather history for previous 24 hours

 ConditionsComfort  
Time TempWeatherWind HumidityBarometerVisibility
1:00 AM
Sep 23
66 °FFog.1 mph88%30.01 "Hg1 mi
12:00 AM66 °FFog.1 mph88%30.01 "Hg2 mi
11:00 PM
Sep 22
66 °FFog.1 mph88%30.01 "Hg2 mi
10:00 PM66 °FFog.1 mph94%30.01 "Hg2 mi
9:00 PM68 °FFog.3 mph83%30.01 "Hg2 mi
8:00 PM68 °FFog.1 mph83%29.98 "Hg2 mi
7:00 PM70 °FFog.3 mph78%29.95 "Hg3 mi
6:00 PM72 °FHaze.8 mph73%29.92 "Hg3 mi
5:00 PM72 °FScattered clouds.3 mph73%29.92 "Hg3 mi
4:00 PM73 °FScattered clouds.6 mph69%29.92 "Hg4 mi
3:00 PM72 °FLight rain. Scattered clouds.6 mph73%29.92 "Hg4 mi
2:00 PM75 °FPassing clouds.13 mph61%29.95 "Hg4 mi
1:00 PM73 °FLight rain. Scattered clouds.10 mph65%29.98 "Hg4 mi
12:00 PM73 °FClear.13 mph65%29.98 "Hg4 mi
11:00 AM73 °FClear.13 mph65%30.01 "Hg4 mi
10:00 AM73 °FClear.17 mph69%30.01 "Hg4 mi
9:00 AM70 °FFog.15 mph73%30.01 "Hg2 mi
8:00 AM68 °FFog.13 mph78%29.98 "Hg2 mi
7:00 AM68 °FFog.13 mph78%29.95 "Hg2 mi
6:00 AM68 °FFog.10 mph83%29.95 "Hg2 mi
5:00 AM68 °FFog.13 mph83%29.92 "Hg2 mi
4:00 AM68 °FFog.10 mph83%29.95 "Hg2 mi
3:00 AM68 °FFog.10 mph83%29.95 "Hg2 mi
2:00 AM68 °FFog.10 mph83%29.92 "Hg2 mi
Weather by CustomWeather, © 2014

See weather overviewHow to use our weather pages